sat.trackr.live / text

‹ back to catalog

UNKNOWN

NORAD 82698

UNKNOWN UNKNOWN UNKNOWN

§ Identity

Operator
Country
Launch date
Launch site
Launch vehicle
Mass (kg)
RCS (m²)

External: N2YO · Heavens-Above

§ Orbital elements

Epoch: 2026-09-18T04:38:32.191296Z

Period
108.24 min
Inclination
61.6035°
Eccentricity
0.0702433
Mean motion
13.30324487 rev/d
Perigee alt
617.1 km
Apogee alt
1,674.0 km
Semi-major
7,523.7 km
B*
6.2536e-4
RAAN
121.2854°
Arg perigee
32.5810°
Mean anomaly
331.6582°
Rev number
57,554

§ Raw data

UNKNOWN1 82698U          26261.19342814  .00001078  00000+0  62536-3 0  99922 82698  61.6035 121.2854 0702433  32.5810 331.6582 13.30324487575546

JSON: /api/v1/satellites/82698 · /tle

For live sub-satellite position, see the globe view (requires WebGL).

§ Visibility from observer

Set your observer location to see the next 7 days of passes ≥ 10°. The values pass through the URL so the page stays shareable.

No JS? Fill the form by hand. The geolocation button needs JavaScript.